• Join FlightAware (Why Join?)
  • Login
  • US Flag 
06:47AM EST


 

Airport Tracker/Info


-or-


 

Live Flight TrackerFlight Track Log ✈ SKW5550 ✈ 26-Aug-2013 ✈ KCOD - KDEN

Flight Track Log - Related Links

Times and Time Zones

All times are in EDT time to prevent confusion due to time zone crossing. See the SKW5550 flight status page for this flight to view local times or setup timezone preferences in your user account.

Time Position Orientation Groundspeed Altitude Reporting Facility
EDT Latitude Longitude Course Direction KTS MPH feet Rate Location/Type
07:57AM 44.4461 -108.8758 157° South 262 302 9,200  Level Salt Lake Center
07:58AM 44.4060 -108.8429 154° Southeast  Level FlightAware Approximate
07:58AM 44.3744 -108.8100 147° Southeast 285 328 11,500  Level Salt Lake Center
07:59AM 44.3049 -108.7755 154° Southeast  Level FlightAware Approximate
07:59AM 44.3017 -108.7403 146° Southeast 301 346 13,000  Level Salt Lake Center
08:00AM 44.2022 -108.7131 158° South  Level FlightAware Approximate
08:00AM 44.2239 -108.6681 146° Southeast 316 364 14,000  Level Salt Lake Center
08:01AM 44.0982 -108.6550 159° South  Level FlightAware Approximate
08:01AM 44.1392 -108.5919 147° Southeast 336 387 15,300  Level Salt Lake Center
08:02AM 43.9939 -108.5981 159° South  Level FlightAware Approximate
08:02AM 44.0533 -108.5122 146° Southeast 354 407 16,700  Level Salt Lake Center
08:03AM 43.8903 -108.5387 157° South  Level FlightAware Approximate
08:03AM 43.9667 -108.4306 146° Southeast 367 422 17,700  Level Salt Lake Center
08:04AM 43.8794 -108.3519 147° Southeast 372 428 18,400 744 Climbing Salt Lake Center
08:05AM 43.7900 -108.2689 146° Southeast 382 440 19,200 800 Climbing Salt Lake Center
08:06AM 43.6975 -108.1875 148° Southeast 392 451 20,000 942 Climbing Salt Lake Center
08:07AM 43.6050 -108.1028 146° Southeast 398 458 21,100 942 Climbing Salt Lake Center
08:08AM 43.5150 -108.0206 146° Southeast 392 451 21,900 700 Climbing Salt Lake Center
08:09AM 43.4219 -107.9378 147° Southeast 397 457 22,500 595 Climbing Salt Lake Center
08:10AM 43.3289 -107.8514 146° Southeast 403 464 23,100 545 Climbing Salt Lake Center
08:11AM 43.2439 -107.7464 138° Southeast 411 473 23,600 545 Climbing Salt Lake Center
08:12AM 43.1442 -107.6128 136° Southeast 417 480 24,200 545 Climbing Salt Lake Center
08:13AM 43.0622 -107.4967 134° Southeast 423 487 24,700 500 Climbing Salt Lake Center
08:14AM 42.9808 -107.3811 134° Southeast 423 487 25,200 496 Climbing Salt Lake Center
08:15AM 42.8892 -107.3044 148° Southeast 404 465 25,700 516 Climbing Salt Lake Center
08:16AM 42.8422 -107.2678 150° Southeast 403 464 26,000 522 Climbing Denver Center
08:17AM 42.7419 -107.1919 151° Southeast 401 461 26,500 446 Climbing Denver Center
08:18AM 42.6478 -107.1217 151° Southeast 403 464 26,900 492 Climbing Denver Center
08:19AM 42.5447 -107.0456 151° Southeast 403 464 27,500 545 Climbing Denver Center
08:20AM 42.4472 -106.9967 160° South 392 451 28,000 545 Climbing Denver Center
08:21AM 42.3372 -106.9333 157° South 385 443 28,600 492 Climbing Denver Center
08:22AM 42.2464 -106.8719 153° Southeast 382 440 29,000 443 Climbing Denver Center
08:23AM 42.1572 -106.8147 155° Southeast 373 429 29,500 541 Climbing Denver Center
08:24AM 42.0519 -106.7442 154° Southeast 379 436 30,100 545 Climbing Denver Center
08:25AM 41.9592 -106.6844 154° Southeast 385 443 30,600 446 Climbing Denver Center
08:26AM 41.8683 -106.6250 154° Southeast 381 438 31,000 197 Climbing Denver Center
08:27AM 41.7572 -106.5533 154° Southeast 393 452 31,000  Level Denver Center
08:28AM 41.6517 -106.4847 154° Southeast 415 478 31,000  Level Denver Center
08:29AM 41.5489 -106.4181 154° Southeast 425 489 31,000  Level Denver Center
08:30AM 41.4275 -106.3403 154° Southeast 433 498 31,000  Level Denver Center
08:31AM 41.3222 -106.2719 154° Southeast 438 504 31,000  Level Denver Center
08:32AM 41.2214 -106.2081 155° Southeast 438 504 31,000  Level Denver Center
08:33AM 41.0972 -106.1289 154° Southeast 433 498 31,000 -492 Level Denver Center
08:34AM 40.9958 -106.0642 154° Southeast 435 501 30,000 -1,475 Descending Denver Center
08:35AM 40.8817 -105.9925 155° Southeast 452 520 28,000 -1,967 Descending Denver Center
08:36AM 40.7697 -105.9217 154° Southeast 448 516 26,000 -1,869 Descending Denver Center
08:37AM 40.6600 -105.8511 154° Southeast 441 507 24,200 -1,672 Descending Denver Center
08:38AM 40.5586 -105.7881 155° Southeast 411 473 22,600 -1,574 Descending Denver Center
08:39AM 40.4658 -105.7314 155° Southeast 376 433 21,000 -1,574 Descending Denver Center
08:40AM 40.3881 -105.6219 133° Southeast 373 429 19,400 -1,426 Descending Denver Center
08:41AM 40.3644 -105.4914 103° East 371 427 18,100 -1,180 Descending Denver Center
08:42AM 40.3450 -105.3533 100° East 379 436 17,000 -1,475 Descending Denver Center
08:43AM 40.3258 -105.2208 101° East 371 427 15,100 -1,918 Descending Denver Center
08:44AM 40.3089 -105.0933 100° East 358 412 13,100 -1,426 Descending Denver Center
08:45AM 40.2914 -104.9756 101° East 313 360 12,200 -934 Descending Denver Center
08:46AM 40.2783 -104.8803 100° East 274 315 11,200 -1,033 Descending Denver Center
08:47AM 40.2281 -104.8206 138° Southeast 255 293 10,100 -1,033 Descending Denver Center
08:48AM 40.1653 -104.7764 152° Southeast 257 296 9,100 -934 Descending Denver Center
08:49AM 40.1025 -104.7364 154° Southeast 253 291 8,200 -541 Descending Denver Center
08:51AM 40.0347 -104.6997 157° South 246 283 8,000 -639 Descending Denver Center
08:52AM 39.9744 -104.6956 177° South 218 251 6,900 -976 Descending Denver Center
08:53AM 39.9283 -104.6958 180° South 169 194 6,000 -787 Descending Denver Center
08:54AM 39.8844 -104.6961 180° South 151 174 5,300 -700 Descending Denver Center